[[{"header":{"parameterUnit":"m.s-1","parameterCategory":1,"la1":30.2991,"la2":30.254,"lo1":-89.0895,"lo2":-89.0444,"dy":0.0017,"dx":0.0017,"nx":28,"ny":28,"refTime":"2024-08-14T21:00:00:Z","depth":0,"parameterNumber":2,"parameterNumberName":"U-component_of_WINDS"},"data":[0,0,0,0,0,0,0,0,0,0,0,0,0,0,0,0,0,0,0,0,0,0,0,0,0,0,0,0,0,0,0,0,0,0,0,0,0,0,0,0,0,0,0,0,0,0,0,0,0,0,0,0,0,0,0,0,0,0,3.0974,3.0974,0,3.096,3.0959,3.0959,3.0777,3.0772,3.0768,3.0763,3.0755,3.0759,3.0763,0,0,0,0,0,0,0,0,0,0,0,0,0,3.0849,3.0852,3.0974,3.0974,3.0974,3.096,3.0959,3.0959,3.0778,3.0772,3.0767,3.0761,3.0754,3.0759,3.0764,0,0,0,0,0,0,0,0,0,0,0,0,0,3.0876,3.0853,3.0974,3.0881,3.0873,3.096,3.0959,3.0959,3.0779,3.0772,3.0765,3.0759,3.0752,3.0758,3.0765,3.0941,0,0,3.0783,3.0786,0,0,0,0,0,0,0,0,3.0875,3.0881,3.0895,3.0888,3.0878,3.0863,3.0912,3.0953,3.0781,3.0815,3.0763,3.0755,3.0797,3.0799,3.0812,3.0941,3.094,3.0784,3.0788,3.079,3.0792,0,0,0,0,0,0,0,3.0873,3.088,3.0968,3.0896,3.0885,3.0842,3.0838,3.0919,3.0845,3.0811,3.0798,3.0799,3.0791,3.0807,3.081,3.094,3.0784,3.0789,3.0793,3.0795,3.121,3.1217,0,0,0,0,0,0,3.0883,3.088,3.0969,3.0968,3.0859,3.085,3.0845,3.0875,3.0844,3.0832,3.0804,3.079,3.0799,3.0804,3.081,3.1012,3.079,3.0796,3.0799,3.1203,3.1212,3.122,0,0,0,0,0,0,3.0881,3.0893,3.0969,3.092,3.0927,3.0859,3.0894,3.0878,3.0893,3.0839,3.0825,3.0833,3.0794,3.0801,3.0909,3.1009,3.0799,3.0804,3.1194,3.1206,3.1216,3.142,0,0,0,0,0,0,3.0878,3.0893,3.0959,3.0923,3.093,3.1068,3.09,3.0883,3.0903,3.0884,3.0862,3.0852,3.0789,3.09,3.0915,3.1014,3.0809,3.1185,3.1199,3.1212,3.1404,3.1436,3.1464,0,0,0,0,0,3.0874,3.1019,3.0963,3.0975,3.101,3.1074,3.1078,3.1002,3.0912,3.0978,3.0942,3.0852,3.0996,3.0913,3.0928,3.103,3.1178,3.1195,3.1211,3.139,3.143,3.1464,0,0,0,0,0,0,3.1072,3.1013,3.095,3.1087,3.1087,3.1043,3.1124,3.1047,3.1074,3.1055,3.0961,3.0958,3.108,3.1065,3.0974,3.1198,3.1071,3.1091,3.1202,3.124,3.1269,3.127,3.0814,0,0,0,0,0,3.1131,3.1186,3.1132,3.1258,3.1261,3.1193,3.1218,3.1159,3.1156,3.1155,3.1127,3.113,3.1174,3.1206,3.1245,3.1401,3.1393,3.1478,3.1509,3.1534,3.1552,3.1631,3.1668,3.1274,3.1274,3.1273,0,0,3.1254,3.1229,3.127,3.1297,3.129,3.135,3.1194,3.1265,3.1309,3.1167,3.1265,3.1245,3.1241,3.1373,3.143,3.1365,3.1659,3.1555,3.1575,3.158,3.1652,3.1689,3.1723,3.1285,3.1283,3.1281,0,0,3.1509,3.1496,3.1598,3.1593,3.1582,3.1535,3.156,3.1528,3.1508,3.1605,3.1499,3.155,3.1631,3.1631,3.1642,3.1894,3.1811,3.191,3.2068,3.2146,3.2177,3.2204,3.2292,3.2325,3.1928,3.1929,3.1929,0,3.1664,3.1748,3.1661,3.1737,3.1752,3.1623,3.1725,3.1725,3.173,3.1743,3.167,3.1766,3.1754,3.1883,3.1944,3.1958,3.1983,3.1911,3.2179,3.2205,3.2229,3.2312,3.2346,3.1941,3.1939,3.1938,3.1937,0,3.1939,3.1999,3.2083,3.2086,3.211,3.22,3.2127,3.2162,3.21,3.2062,3.2161,3.2142,3.2174,3.22,3.2142,3.2321,3.228,3.2195,3.2066,3.228,3.2356,3.2387,3.1958,3.1953,3.195,3.1947,0,0,3.2319,3.2269,3.2302,3.23,3.2278,3.2323,3.2407,3.2435,3.2466,3.2473,3.2541,3.261,3.2529,3.2542,3.2483,3.2552,3.275,3.2457,3.2455,3.2511,3.2943,3.3006,3.3045,3.2695,3.2701,3.2705,3.2943,0,3.2562,3.2699,3.2622,3.277,3.2824,3.2701,3.2773,3.2768,3.2734,3.2776,3.2739,3.2788,3.268,3.2686,3.2748,3.2713,3.2835,3.2695,3.2757,3.276,3.276,3.3085,3.3152,3.3377,3.2972,3.2977,3.2981,0,3.2865,3.2881,3.3034,3.2998,3.3018,3.3084,3.3102,3.3143,3.3135,3.3105,3.3118,3.3041,3.3121,3.2993,3.3102,3.3008,3.3029,3.3015,3.3022,3.3024,3.2883,3.3094,3.3447,3.3481,3.3027,3.3024,3.302,0,3.3124,3.3185,3.3282,3.3286,3.3247,3.3296,3.3283,3.3267,3.3288,3.3304,3.3316,3.3344,3.3358,3.3381,3.3314,3.3228,3.3431,3.3299,3.3409,3.3411,3.3457,3.3454,3.3817,3.3473,3.3473,3.3472,3.3472,0,3.3404,3.3502,3.3397,3.3458,3.3564,3.3474,3.3582,3.3556,3.3543,3.3597,3.3494,3.3547,3.3455,3.35,3.3448,3.3544,3.3553,3.3531,3.3516,3.3539,3.3542,3.3551,3.3533,3.3481,3.3479,3.3477,3.3476,0,3.3711,3.3645,3.3743,3.3698,3.3688,3.3769,3.373,3.3784,3.3742,3.3812,3.3823,3.3758,3.3804,3.3739,3.3781,3.3745,3.3877,3.384,3.388,3.3868,3.3981,3.3971,3.4361,3.4406,3.4036,3.4039,3.4042,0,3.3893,3.3964,3.3925,3.3952,3.3943,3.3989,3.4008,3.3923,3.3948,3.3942,3.3997,3.4034,3.4059,3.4139,3.4097,3.4127,3.4088,3.4223,3.4092,3.4113,3.4088,3.4084,3.409,3.425,3.4254,3.4258,3.4261,0,3.4222,3.4184,3.4215,3.4234,3.4258,3.427,3.4274,3.4303,3.4213,3.4246,3.429,3.431,3.4349,3.4387,3.4406,3.4393,3.4313,3.4302,3.4328,3.4353,3.4372,3.4361,3.3951,3.4293,3.429,3.4288,3.4286,3.4285,3.447,3.4527,3.4507,3.4543,3.4536,3.4542,3.459,3.4552,3.4587,3.461,3.4558,3.4615,3.4603,3.4619,3.4616,3.466,3.4601,3.4641,3.465,3.4661,3.4677,3.4366,3.4663,3.4662,3.4661,3.466,3.466,0,3.4791,3.4771,3.4806,3.4813,3.4842,3.476,3.476,3.479,3.484,3.4835,3.486,3.491,3.4946,3.4906,3.4934,3.4977,3.4941,3.4987,3.4983,3.4981,3.4729,3.4702,3.5016,3.5016,3.5016,3.5016,3.5016,3.5016,3.4962,3.5052,3.5013,3.51,3.5079,3.5131,3.5138,3.5143,3.5137,3.5197,3.5225,3.5197,3.5177,3.5203,3.5232,3.5219,3.5234,3.5294,3.5268,3.5034,3.4999,3.4965,3.4939,3.5298,3.5299,3.5515,3.5517,3.5519]},{"header":{"parameterUnit":"m.s-1","parameterCategory":1,"la1":30.2991,"la2":30.254,"lo1":-89.0895,"lo2":-89.0444,"dy":0.0017,"dx":0.0017,"nx":28,"ny":28,"refTime":"2024-08-14T21:00:00:Z","depth":0,"parameterNumber":3,"parameterNumberName":"V-component_of_WINDS"},"data":[0,0,0,0,0,0,0,0,0,0,0,0,0,0,0,0,0,0,0,0,0,0,0,0,0,0,0,0,0,0,0,0,0,0,0,0,0,0,0,0,0,0,0,0,0,0,0,0,0,0,0,0,0,0,0,0,0,0,0.6272,0.6273,0,0.6329,0.633,0.6331,0.6334,0.6333,0.6333,0.6332,0.6391,0.6393,0.6395,0,0,0,0,0,0,0,0,0,0,0,0,0,0.6166,0.6168,0.6272,0.6273,0.6274,0.6329,0.633,0.6331,0.6334,0.6333,0.6333,0.6332,0.639,0.6393,0.6396,0,0,0,0,0,0,0,0,0,0,0,0,0,0.6217,0.6169,0.6272,0.6282,0.6284,0.6329,0.633,0.6331,0.6334,0.6333,0.6332,0.6332,0.639,0.6393,0.6396,0.6435,0,0,0.6406,0.6407,0,0,0,0,0,0,0,0,0.6214,0.622,0.628,0.6282,0.6283,0.6324,0.6314,0.6366,0.6335,0.6315,0.6332,0.6331,0.6369,0.6374,0.6387,0.6438,0.6441,0.6406,0.6408,0.6409,0.641,0,0,0,0,0,0,0,0.621,0.6218,0.6295,0.6281,0.6283,0.6284,0.629,0.6324,0.6347,0.6317,0.6317,0.6324,0.637,0.6384,0.6389,0.6442,0.6406,0.6409,0.6411,0.6412,0.6526,0.6527,0,0,0,0,0,0,0.6205,0.6215,0.6293,0.6297,0.6245,0.6286,0.6293,0.6312,0.6347,0.6351,0.6325,0.6324,0.6379,0.6385,0.6391,0.6438,0.6409,0.6413,0.6414,0.6525,0.6526,0.6527,0,0,0,0,0,0,0.6202,0.6212,0.6291,0.6256,0.6266,0.6289,0.631,0.6313,0.6327,0.6353,0.6357,0.6335,0.6378,0.6386,0.6424,0.644,0.6414,0.6417,0.6523,0.6525,0.6526,0.6534,0,0,0,0,0,0,0.6199,0.6211,0.6227,0.6256,0.6268,0.6323,0.6311,0.6315,0.6333,0.6332,0.6363,0.6367,0.6378,0.6419,0.6427,0.6444,0.6419,0.6522,0.6524,0.6526,0.6532,0.6535,0.6538,0,0,0,0,0,0.6196,0.6227,0.6227,0.6237,0.6288,0.6324,0.6331,0.6343,0.6334,0.635,0.6366,0.6366,0.6437,0.6423,0.6432,0.645,0.6521,0.6523,0.6526,0.6531,0.6535,0.6538,0,0,0,0,0,0,0.62,0.6231,0.6232,0.6274,0.6296,0.6325,0.6345,0.6347,0.6373,0.6371,0.6385,0.6392,0.6429,0.6443,0.6427,0.6489,0.6478,0.6482,0.6478,0.6482,0.6485,0.6481,0.6422,0,0,0,0,0,0.6205,0.6232,0.6258,0.6293,0.6304,0.6322,0.6339,0.6346,0.637,0.6379,0.6398,0.6421,0.6448,0.6466,0.6493,0.6534,0.654,0.6551,0.6554,0.6556,0.656,0.6581,0.6585,0.6535,0.6535,0.6535,0,0,0.6218,0.6238,0.6254,0.6294,0.6312,0.6339,0.6331,0.636,0.638,0.6384,0.642,0.6435,0.6461,0.65,0.6518,0.6513,0.6575,0.6559,0.6561,0.6563,0.6583,0.6588,0.6592,0.6536,0.6536,0.6536,0,0,0.6253,0.6272,0.6302,0.632,0.6347,0.6359,0.6366,0.6393,0.6403,0.6439,0.6442,0.6466,0.6513,0.6531,0.6547,0.6587,0.6588,0.6595,0.6611,0.6631,0.6635,0.6638,0.6651,0.6656,0.6598,0.6598,0.6598,0,0.6265,0.6306,0.6317,0.6346,0.6363,0.6366,0.6396,0.6413,0.6447,0.6459,0.6452,0.651,0.6528,0.6571,0.658,0.6593,0.6601,0.6592,0.6633,0.6637,0.664,0.6653,0.6658,0.6599,0.6599,0.6599,0.6599,0,0.6319,0.6347,0.6368,0.64,0.6419,0.6448,0.6463,0.6481,0.6485,0.6497,0.6533,0.6555,0.6585,0.6596,0.6601,0.6638,0.6634,0.663,0.6619,0.6646,0.6658,0.6663,0.66,0.66,0.6599,0.6599,0,0,0.6361,0.6396,0.6404,0.6417,0.6446,0.6468,0.6497,0.6526,0.654,0.6563,0.6587,0.6625,0.6621,0.6639,0.6646,0.6664,0.6692,0.6658,0.6658,0.6663,0.6733,0.6735,0.6741,0.6693,0.6694,0.6694,0.673,0,0.6399,0.645,0.6459,0.6503,0.6528,0.6531,0.6555,0.6575,0.6587,0.661,0.6623,0.6649,0.6643,0.6653,0.6671,0.6685,0.6706,0.6683,0.6714,0.6715,0.6707,0.6747,0.675,0.6783,0.6735,0.6736,0.6737,0,0.6451,0.6474,0.652,0.6544,0.6555,0.6577,0.6603,0.6625,0.6647,0.6654,0.6672,0.6677,0.6705,0.6692,0.6732,0.6715,0.6728,0.6737,0.6739,0.6742,0.6728,0.6751,0.6794,0.6799,0.6744,0.6744,0.6743,0,0.6476,0.6518,0.6551,0.6563,0.6591,0.6606,0.6619,0.664,0.6656,0.6678,0.6689,0.6715,0.6729,0.6748,0.6759,0.6749,0.6797,0.6785,0.6803,0.6803,0.6813,0.6812,0.6858,0.6822,0.6822,0.6822,0.6822,0,0.6518,0.6546,0.6562,0.6582,0.6613,0.6623,0.6653,0.6665,0.6684,0.6705,0.6709,0.673,0.6743,0.6765,0.6774,0.6804,0.6811,0.6817,0.6819,0.6816,0.6815,0.6825,0.6823,0.6824,0.6823,0.6823,0.6823,0,0.6551,0.6563,0.6598,0.6621,0.6628,0.6649,0.6669,0.6688,0.6699,0.6726,0.6733,0.675,0.6776,0.6789,0.6822,0.6827,0.6861,0.6862,0.6854,0.6854,0.6871,0.6869,0.6925,0.6932,0.6891,0.6892,0.6892,0,0.6576,0.6598,0.6622,0.6637,0.6649,0.6673,0.6689,0.6699,0.6715,0.6741,0.6756,0.6782,0.6804,0.6845,0.686,0.6884,0.6885,0.6903,0.6889,0.6885,0.6884,0.6883,0.6884,0.6906,0.6906,0.6906,0.6907,0,0.6621,0.6625,0.6647,0.6671,0.6689,0.6709,0.6728,0.6739,0.6752,0.677,0.6796,0.6813,0.6845,0.687,0.6895,0.6908,0.6909,0.6911,0.6916,0.6913,0.6907,0.691,0.686,0.6909,0.6909,0.6909,0.6909,0.6909,0.665,0.6668,0.6688,0.6712,0.6727,0.6744,0.6763,0.6775,0.6797,0.6823,0.6828,0.6855,0.6875,0.6908,0.6922,0.6943,0.6939,0.6947,0.6948,0.695,0.695,0.6904,0.6947,0.6947,0.6947,0.6947,0.6947,0,0.6694,0.6706,0.6728,0.6753,0.6772,0.6771,0.6791,0.6807,0.6831,0.6849,0.6869,0.6898,0.6922,0.6938,0.6962,0.6976,0.6977,0.6982,0.6981,0.6983,0.6953,0.6946,0.698,0.698,0.698,0.698,0.698,0.698,0.6719,0.6749,0.6755,0.6792,0.6804,0.683,0.6842,0.6857,0.6871,0.6903,0.6923,0.6933,0.695,0.6975,0.6996,0.7,0.7008,0.7013,0.7017,0.6989,0.6985,0.6982,0.6975,0.7015,0.7015,0.7045,0.7045,0.7046]}]]